Location: Nordegg
(52.4712°N, 116.0743°W)
Time: 11:16:04
(UTC+00:00)

Envisat - Pass Details

Date: 30 November 2021
Orbit: 764 x 766 km, 98.2° (Epoch: 28 January)

Event Time Altitude Azimuth Distance (km) Brightness Sun altitude
Rises 11:20:37 0° 27° (NNE) 3,247 6.7 -37.1°
Reaches altitude 10° 11:24:00 10° 51° (NE) 2,314 6.1 -36.6°
Maximum altitude 11:26:51 15° 85° (E) 1,987 5.8 -36.1°
Drops below altitude 10° 11:29:42 10° 120° (ESE) 2,304 6.0 -35.7°
Sets 11:33:02 0° 143° (SE) 3,224 6.5 -35.2°
